Location: Newark
(26.9047°N, 51.5475°E)
Time: 11:00:36
(UTC+00:00)

Starlink Launch 2 leader - Visible Passes

Search period start: 10 December 2019 00:00
Search period end: 20 December 2019 00:00
Orbit: 279 x 281 km, 53.0° (Epoch: 13 November)

Date Brightness Start Highest point End Pass type
(mag) Time Alt. Az. Time Alt. Az. Time Alt. Az.
11 Dec 4.5 02:24:47 10° N 02:26:42 20° NE 02:28:36 10° E visible
12 Dec 2.7 02:26:35 13° NNW 02:28:39 55° NE 02:31:03 10° SE visible
13 Dec 2.8 02:28:58 17° WNW 02:30:32 41° SW 02:32:51 10° SSE visible
14 Dec 4.4 02:31:25 13° W 02:32:22 15° SW 02:33:53 10° SSW visible
17 Dec 5.7 15:34:42 10° WSW 15:35:09 14° WSW 15:35:09 14° WSW visible
18 Dec 5.8 15:37:17 10° W 15:37:38 12° W 15:37:38 12° W visible
19 Dec 3.5 14:05:14 10° S 14:07:23 27° SE 14:09:32 10° ENE visible
